CES116 YMML-YSSY

Flight info

Callsign CES116
Flight time 1h 9m
Altitude 35000
Route DOSEL2/34 DOSEL Y59 RIVET
Aircraft A320/M-SDE2E3FGHIRW/LB1

Departure

Time 2026-05-04 11:13
Airport Melbourne Airport (YMML)

Arrival

Time 2026-05-04 12:22
Airport Sydney Kingsford Smith International Airport (YSSY)
Time Latitude Longitude Altitude Speed Heading
2026-05-04 10:44 -37.66949 144.84745 394 ft 0 kts 37°
2026-05-04 10:59 -37.66955 144.84739 392 ft 4 kts 37°
2026-05-04 10:59 -37.66976 144.84718 394 ft 4 kts 41°
2026-05-04 10:59 -37.66995 144.84693 393 ft 4 kts 60°
2026-05-04 10:59 -37.67002 144.84663 392 ft 4 kts 82°
2026-05-04 11:00 -37.67006 144.84630 391 ft 4 kts 82°
2026-05-04 11:01 -37.67048 144.84402 387 ft 4 kts 79°
2026-05-04 11:02 -37.67052 144.84369 387 ft 3 kts 83°
2026-05-04 11:02 -37.67052 144.84363 387 ft 0 kts 82°
2026-05-04 11:05 -37.67259 144.84078 378 ft 16 kts 199°
2026-05-04 11:06 -37.67367 144.84091 375 ft 16 kts 171°
2026-05-04 11:06 -37.67476 144.84111 371 ft 16 kts 172°
2026-05-04 11:06 -37.67591 144.84132 369 ft 17 kts 172°
2026-05-04 11:06 -37.67710 144.84154 366 ft 17 kts 172°
2026-05-04 11:08 -37.67807 144.84173 361 ft 0 kts 171°
2026-05-04 11:12 -37.67825 144.83959 360 ft 0 kts 357°
2026-05-04 11:12 -37.67818 144.83958 363 ft 0 kts 351°
2026-05-04 11:12 -37.67815 144.83957 362 ft 2 kts 351°
2026-05-04 11:12 -37.67766 144.83947 363 ft 27 kts 351°
2026-05-04 11:13 -37.67323 144.83865 374 ft 98 kts 352°
2026-05-04 11:13 -37.66461 144.83710 407 ft 150 kts 352°
2026-05-04 11:13 -37.65428 144.83487 1144 ft 146 kts 348°
2026-05-04 11:13 -37.64422 144.83291 1884 ft 147 kts 346°
2026-05-04 11:14 -37.63401 144.83101 2508 ft 148 kts 343°
2026-05-04 11:14 -37.62385 144.82909 3123 ft 147 kts 342°
2026-05-04 11:14 -37.61333 144.82704 3507 ft 162 kts 342°
2026-05-04 11:16 -37.50499 144.87494 7166 ft 281 kts 20°
2026-05-04 11:16 -37.48720 144.88582 7977 ft 285 kts 20°
2026-05-04 11:16 -37.46922 144.89677 8771 ft 290 kts 21°
2026-05-04 11:17 -37.45099 144.90808 9585 ft 296 kts 25°
2026-05-04 11:17 -37.43416 144.92364 10069 ft 306 kts 41°
2026-05-04 11:19 -37.33425 145.09788 14131 ft 371 kts 51°
2026-05-04 11:19 -37.31920 145.12439 14762 ft 374 kts 51°
2026-05-04 11:19 -37.30400 145.15113 15389 ft 377 kts 51°
2026-05-04 11:19 -37.28869 145.17807 15953 ft 384 kts 51°
2026-05-04 11:20 -37.27280 145.20595 16092 ft 401 kts 51°
2026-05-04 11:20 -37.25635 145.23484 16479 ft 409 kts 51°
2026-05-04 11:20 -37.23996 145.26370 17012 ft 413 kts 51°
2026-05-04 11:20 -37.22323 145.29317 17560 ft 416 kts 51°
2026-05-04 11:22 -37.10261 145.50419 20941 ft 434 kts 51°
2026-05-04 11:22 -37.08494 145.53493 21390 ft 436 kts 50°
2026-05-04 11:23 -37.06720 145.56583 21832 ft 438 kts 50°
2026-05-04 11:23 -37.04940 145.59685 22273 ft 440 kts 50°
2026-05-04 11:24 -36.93998 145.78633 24504 ft 455 kts 49°
2026-05-04 11:25 -36.92135 145.81847 24833 ft 457 kts 49°
2026-05-04 11:25 -36.90265 145.85072 25121 ft 460 kts 49°
2026-05-04 11:25 -36.88373 145.88330 25255 ft 466 kts 48°
2026-05-04 11:26 -36.84555 145.94902 25625 ft 475 kts 48°
2026-05-04 11:27 -36.70874 146.18356 27895 ft 479 kts 45°
2026-05-04 11:28 -36.68907 146.21703 28277 ft 478 kts 45°
2026-05-04 11:28 -36.66944 146.25044 28669 ft 478 kts 45°
2026-05-04 11:28 -36.64985 146.28384 29051 ft 477 kts 45°
2026-05-04 11:28 -36.63027 146.31724 29417 ft 477 kts 45°
2026-05-04 11:29 -36.61073 146.35055 29812 ft 475 kts 44°
2026-05-04 11:29 -36.59128 146.38365 30218 ft 473 kts 44°
2026-05-04 11:29 -36.57182 146.41670 30531 ft 473 kts 44°
2026-05-04 11:29 -36.55237 146.44967 30821 ft 473 kts 44°
2026-05-04 11:31 -36.41518 146.68111 32706 ft 478 kts 45°
2026-05-04 11:33 -36.27641 146.91378 34568 ft 480 kts 45°
2026-05-04 11:33 -36.25647 146.94698 34800 ft 481 kts 45°
2026-05-04 11:33 -36.23648 146.98023 35005 ft 481 kts 45°
2026-05-04 11:34 -36.19647 147.04688 35084 ft 482 kts 45°
2026-05-04 11:34 -36.15654 147.11354 35067 ft 482 kts 45°
2026-05-04 11:35 -36.11690 147.17953 35090 ft 480 kts 45°
2026-05-04 11:35 -36.07690 147.24565 35071 ft 480 kts 44°
2026-05-04 11:36 -36.03692 147.31165 35094 ft 480 kts 45°
2026-05-04 11:36 -35.99681 147.37777 35095 ft 480 kts 45°
2026-05-04 11:37 -35.95674 147.44370 35087 ft 480 kts 45°
2026-05-04 11:37 -35.91671 147.50953 35104 ft 479 kts 45°
2026-05-04 11:38 -35.87668 147.57533 35109 ft 479 kts 45°
2026-05-04 11:38 -35.83692 147.64054 35113 ft 479 kts 44°
2026-05-04 11:39 -35.79681 147.70603 35088 ft 478 kts 44°
2026-05-04 11:41 -35.65623 147.93466 35094 ft 479 kts 44°
2026-05-04 11:41 -35.61603 147.99996 35104 ft 479 kts 44°
2026-05-04 11:42 -35.57566 148.06522 35116 ft 479 kts 44°
2026-05-04 11:42 -35.53523 148.13032 35117 ft 479 kts 44°
2026-05-04 11:43 -35.49483 148.19545 35092 ft 479 kts 43°
2026-05-04 11:43 -35.45442 148.26054 35100 ft 479 kts 43°
2026-05-04 11:44 -35.41390 148.32556 35115 ft 479 kts 43°
2026-05-04 11:44 -35.37343 148.39042 35122 ft 479 kts 43°
2026-05-04 11:45 -35.33339 148.45448 35100 ft 474 kts 43°
2026-05-04 11:45 -35.29359 148.51798 35121 ft 476 kts 43°
2026-05-04 11:46 -35.25284 148.58279 35117 ft 477 kts 43°
2026-05-04 11:46 -35.21241 148.64721 35097 ft 478 kts 43°
2026-05-04 11:47 -35.17199 148.71139 35123 ft 481 kts 43°
2026-05-04 11:47 -35.13116 148.77607 35131 ft 480 kts 43°
2026-05-04 11:48 -35.09035 148.84064 35139 ft 479 kts 43°
2026-05-04 11:48 -35.04960 148.90499 35118 ft 479 kts 43°
2026-05-04 11:49 -35.00878 148.96924 35118 ft 479 kts 43°
2026-05-04 11:49 -34.96798 149.03335 35123 ft 479 kts 43°
2026-05-04 11:50 -34.92716 149.09749 35123 ft 478 kts 43°
2026-05-04 11:50 -34.88678 149.16093 35135 ft 468 kts 43°
2026-05-04 11:50 -34.86688 149.19216 34950 ft 465 kts 43°
2026-05-04 11:51 -34.84683 149.22347 34724 ft 470 kts 43°
2026-05-04 11:51 -34.82664 149.25491 34494 ft 473 kts 43°
2026-05-04 11:51 -34.80636 149.28649 34266 ft 473 kts 43°
2026-05-04 11:51 -34.78611 149.31804 34026 ft 473 kts 43°
2026-05-04 11:52 -34.76587 149.34960 33741 ft 473 kts 43°
2026-05-04 11:52 -34.74574 149.38147 32722 ft 482 kts 46°
2026-05-04 11:52 -34.72829 149.41682 32012 ft 491 kts 54°
2026-05-04 11:52 -34.71268 149.45345 31480 ft 485 kts 54°
2026-05-04 11:53 -34.69704 149.48958 30842 ft 481 kts 53°
2026-05-04 11:53 -34.68668 149.51329 30443 ft 478 kts 53°
2026-05-04 11:53 -34.66621 149.55993 30061 ft 463 kts 53°
2026-05-04 11:53 -34.65129 149.59400 29821 ft 451 kts 53°
2026-05-04 11:55 -34.55370 149.81624 26830 ft 408 kts 52°
2026-05-04 11:55 -34.54031 149.84649 26369 ft 405 kts 52°
2026-05-04 11:56 -34.53153 149.86635 26061 ft 403 kts 52°
2026-05-04 11:56 -34.51835 149.89614 25586 ft 399 kts 52°
2026-05-04 11:56 -34.50534 149.92559 25281 ft 392 kts 52°
2026-05-04 11:56 -34.49267 149.95441 25053 ft 383 kts 52°
2026-05-04 11:57 -34.48022 149.98271 24699 ft 379 kts 52°
2026-05-04 11:57 -34.46785 150.01072 24318 ft 375 kts 52°
2026-05-04 11:57 -34.45556 150.03844 23911 ft 372 kts 51°
2026-05-04 11:57 -34.44330 150.06600 23481 ft 370 kts 51°
2026-05-04 11:58 -34.43113 150.09331 23039 ft 367 kts 52°
2026-05-04 11:58 -34.41902 150.12048 22583 ft 365 kts 52°
2026-05-04 11:58 -34.40702 150.14740 22190 ft 362 kts 52°
2026-05-04 11:58 -34.39507 150.17422 21734 ft 359 kts 53°
2026-05-04 11:59 -34.38328 150.20071 21366 ft 356 kts 52°
2026-05-04 11:59 -34.37158 150.22704 20976 ft 353 kts 52°
2026-05-04 11:59 -34.35999 150.25312 20596 ft 351 kts 53°
2026-05-04 11:59 -34.34848 150.27899 20217 ft 348 kts 53°
2026-05-04 12:00 -34.33703 150.30467 19813 ft 346 kts 53°
2026-05-04 12:00 -34.32561 150.33022 19450 ft 344 kts 53°
2026-05-04 12:00 -34.31422 150.35564 19100 ft 342 kts 53°
2026-05-04 12:00 -34.30291 150.38086 18728 ft 339 kts 53°
2026-05-04 12:01 -34.29173 150.40574 18126 ft 335 kts 53°
2026-05-04 12:01 -34.28065 150.43044 17456 ft 332 kts 53°
2026-05-04 12:02 -34.21695 150.57309 13948 ft 312 kts 54°
2026-05-04 12:03 -34.20667 150.59601 13326 ft 309 kts 54°
2026-05-04 12:03 -34.19660 150.61842 12716 ft 306 kts 54°
2026-05-04 12:03 -34.18650 150.64089 12101 ft 303 kts 55°
2026-05-04 12:03 -34.17651 150.66320 11505 ft 300 kts 55°
2026-05-04 12:04 -34.16662 150.68527 10881 ft 298 kts 55°
2026-05-04 12:04 -34.15682 150.70711 10408 ft 294 kts 55°
2026-05-04 12:04 -34.14699 150.72887 10270 ft 296 kts 55°
2026-05-04 12:04 -34.13712 150.75069 10144 ft 295 kts 55°
2026-05-04 12:05 -34.12728 150.77242 10006 ft 295 kts 55°
2026-05-04 12:05 -34.11738 150.79424 9597 ft 297 kts 56°
2026-05-04 12:05 -34.10751 150.81604 9209 ft 295 kts 56°
2026-05-04 12:05 -34.09773 150.83772 8856 ft 293 kts 56°
2026-05-04 12:06 -34.08806 150.85920 8586 ft 291 kts 56°
2026-05-04 12:06 -34.07842 150.88063 8301 ft 290 kts 56°
2026-05-04 12:06 -34.06883 150.90197 8016 ft 289 kts 56°
2026-05-04 12:06 -34.06004 150.92151 7747 ft 289 kts 56°
2026-05-04 12:07 -34.05040 150.94282 7464 ft 289 kts 56°
2026-05-04 12:07 -34.04081 150.96413 7182 ft 290 kts 58°
2026-05-04 12:07 -34.03459 150.98735 6891 ft 296 kts 81°
2026-05-04 12:07 -34.03637 151.01212 6594 ft 301 kts 107°
2026-05-04 12:08 -34.04614 151.03420 6275 ft 300 kts 132°
2026-05-04 12:08 -34.06025 151.05227 6028 ft 299 kts 135°
2026-05-04 12:08 -34.07580 151.06874 5999 ft 297 kts 148°
2026-05-04 12:08 -34.09408 151.08005 6017 ft 293 kts 164°
2026-05-04 12:09 -34.11369 151.08607 6012 ft 291 kts 172°
2026-05-04 12:09 -34.13355 151.09111 6009 ft 291 kts 172°
2026-05-04 12:09 -34.15341 151.09618 6009 ft 291 kts 172°
2026-05-04 12:09 -34.17326 151.10127 6009 ft 292 kts 171°
2026-05-04 12:10 -34.19265 151.10632 6000 ft 277 kts 171°
2026-05-04 12:10 -34.21152 151.11125 5527 ft 279 kts 172°
2026-05-04 12:10 -34.23030 151.11610 5132 ft 277 kts 172°
2026-05-04 12:10 -34.24926 151.12097 4776 ft 275 kts 172°
2026-05-04 12:11 -34.26773 151.12574 4527 ft 268 kts 172°
2026-05-04 12:11 -34.28567 151.13036 4272 ft 262 kts 172°
2026-05-04 12:11 -34.30340 151.13495 4018 ft 259 kts 171°
2026-05-04 12:11 -34.32078 151.13982 3769 ft 255 kts 163°
2026-05-04 12:12 -34.33548 151.15135 3546 ft 253 kts 131°
2026-05-04 12:12 -34.34359 151.17067 3361 ft 265 kts 99°
2026-05-04 12:12 -34.34335 151.19281 3162 ft 264 kts 76°
2026-05-04 12:12 -34.33959 151.21417 3029 ft 255 kts 73°
2026-05-04 12:13 -34.33561 151.23494 3004 ft 254 kts 73°
2026-05-04 12:14 -34.28262 151.34731 3001 ft 220 kts 339°
2026-05-04 12:15 -34.26925 151.33866 3006 ft 217 kts 325°
2026-05-04 12:15 -34.25667 151.32802 3007 ft 226 kts 323°
2026-05-04 12:15 -34.24384 151.31694 3007 ft 227 kts 323°
2026-05-04 12:15 -34.23107 151.30571 3013 ft 226 kts 323°
2026-05-04 12:16 -34.21841 151.29457 3013 ft 226 kts 323°
2026-05-04 12:16 -34.20572 151.28341 3013 ft 225 kts 323°
2026-05-04 12:16 -34.19307 151.27229 3016 ft 226 kts 323°
2026-05-04 12:16 -34.18041 151.26104 3013 ft 222 kts 323°
2026-05-04 12:17 -34.16839 151.25041 3017 ft 207 kts 323°
2026-05-04 12:17 -34.15707 151.24049 3012 ft 195 kts 323°
2026-05-04 12:17 -34.14645 151.23115 3036 ft 181 kts 323°
2026-05-04 12:17 -34.13558 151.22520 3023 ft 167 kts 345°
2026-05-04 12:18 -34.12403 151.22224 3020 ft 169 kts 343°
2026-05-04 12:18 -34.11253 151.21923 2913 ft 168 kts 343°
2026-05-04 12:18 -34.10121 151.21628 2734 ft 165 kts 343°
2026-05-04 12:18 -34.08999 151.21336 2527 ft 164 kts 344°
2026-05-04 12:19 -34.07916 151.21054 2322 ft 157 kts 344°
2026-05-04 12:19 -34.06887 151.20787 2126 ft 146 kts 344°
2026-05-04 12:19 -34.05933 151.20539 1957 ft 138 kts 346°
2026-05-04 12:19 -34.05005 151.20297 1771 ft 136 kts 345°
2026-05-04 12:20 -34.04081 151.20056 1591 ft 135 kts 345°
2026-05-04 12:20 -34.03161 151.19816 1413 ft 135 kts 345°
2026-05-04 12:20 -34.02238 151.19575 1195 ft 135 kts 347°
2026-05-04 12:20 -34.01322 151.19330 1041 ft 135 kts 346°
2026-05-04 12:21 -34.00395 151.19098 853 ft 135 kts 346°
2026-05-04 12:21 -33.99482 151.18848 645 ft 133 kts 348°
2026-05-04 12:21 -33.98559 151.18611 514 ft 141 kts 345°
2026-05-04 12:21 -33.97629 151.18353 279 ft 139 kts 348°
2026-05-04 12:22 -33.96696 151.18135 115 ft 136 kts 343°
2026-05-04 12:22 -33.95803 151.17897 29 ft 119 kts 348°
2026-05-04 12:22 -33.95171 151.17737 28 ft 68 kts 347°
2026-05-04 12:22 -33.94819 151.17646 29 ft 45 kts 348°
2026-05-04 12:23 -33.94543 151.17552 30 ft 38 kts 333°
2026-05-04 12:23 -33.94355 151.17387 30 ft 26 kts 317°
2026-05-04 12:23 -33.94264 151.17303 30 ft 0 kts 339°
2026-05-04 12:24 -33.94229 151.17292 29 ft 15 kts 348°
2026-05-04 12:25 -33.94101 151.17259 29 ft 16 kts 351°
2026-05-04 12:25 -33.93997 151.17226 29 ft 16 kts 321°
2026-05-04 12:25 -33.94000 151.17099 30 ft 17 kts 253°
2026-05-04 12:25 -33.94034 151.16956 30 ft 19 kts 254°
2026-05-04 12:26 -33.94046 151.16817 30 ft 13 kts 313°
2026-05-04 12:26 -33.93978 151.16792 30 ft 11 kts 340°
2026-05-04 12:26 -33.93900 151.16765 30 ft 13 kts 343°
2026-05-04 12:26 -33.93839 151.16795 30 ft 10 kts 88°
2026-05-04 12:27 -33.93825 151.16851 30 ft 0 kts 75°